^^
Saratoga-Weather Station Historical Data
Daily Summary for February 8, 2020 Units:  English    Metric   Both
Daily Weekly Monthly Yearly Custom
  High: Low: Average:
Temperature: 98.1 °F 65.8 °F 81.5 °F
Dew Point: 67.1 °F 60.3 °F 62.6 °F
Humidity: 83% 29% 56%
Wind Speed: 6.9mph 0mph 0.7mph
Wind Gust: 9mph - -
Wind- - SE
Pressure: 30.1 in 30 in -
Precipitation: 0 in    
Historical Graphs
 
 
Tabular Data for February 8, 2020
Time Temperature Dew Point Pressure Wind Wind Speed Wind Gust Humidity Rainfall Rate (Hourly) solar
00:01 73.4 °F 61.7 °F 30 in Calm     67% 0 in 0 W/m2
00:06 73.2 °F 61.5 °F 30 in Calm     67% 0 in 0 W/m2
00:12 73.2 °F 62.1 °F 30 in Calm     68% 0 in 0 W/m2
00:17 73 °F 61.9 °F 30 in Calm     68% 0 in 0 W/m2
00:22 72.9 °F 61.7 °F 30 in Calm     68% 0 in 0 W/m2
00:27 72.9 °F 61.7 °F 30 in Calm     68% 0 in 0 W/m2
00:32 72.7 °F 61.9 °F 30 in Calm     69% 0 in 0 W/m2
00:37 72.5 °F 61.7 °F 30 in Calm     69% 0 in 0 W/m2
00:42 72.3 °F 61.5 °F 30 in Calm     69% 0 in 0 W/m2
00:47 72.1 °F 61.9 °F 30 in Calm     70% 0 in 0 W/m2
00:52 72.1 °F 61.9 °F 30 in Calm     70% 0 in 0 W/m2
00:57 72 °F 61.7 °F 30 in Calm     70% 0 in 0 W/m2
01:02 71.8 °F 61.5 °F 30 in Calm     70% 0 in 0 W/m2
01:07 71.6 °F 61.7 °F 30 in Calm     71% 0 in 0 W/m2
01:12 71.4 °F 61.5 °F 30 in Calm     71% 0 in 0 W/m2
01:17 71.4 °F 61.5 °F 30 in Calm     71% 0 in 0 W/m2
01:22 71.2 °F 61.7 °F 30 in Calm     72% 0 in 0 W/m2
01:27 71.1 °F 61.2 °F 30 in Calm     71% 0 in 0 W/m2
01:32 71.1 °F 61.5 °F 30 in Calm     72% 0 in 0 W/m2
01:37 70.9 °F 61.3 °F 30 in Calm     72% 0 in 0 W/m2
01:42 70.9 °F 61.9 °F 30 in Calm     73% 0 in 0 W/m2
01:47 70.7 °F 61.7 °F 30 in Calm     73% 0 in 0 W/m2
01:52 70.5 °F 61.5 °F 30 in Calm     73% 0 in 0 W/m2
01:57 70.5 °F 61.5 °F 30 in Calm     73% 0 in 0 W/m2
02:02 70.3 °F 61.3 °F 30 in Calm     73% 0 in 0 W/m2
02:07 70.3 °F 61.3 °F 30 in Calm     73% 0 in 0 W/m2
02:12 70.2 °F 61.5 °F 30 in Calm     74% 0 in 0 W/m2
02:17 70.2 °F 61.5 °F 30 in Calm     74% 0 in 0 W/m2
02:22 70 °F 61.3 °F 30 in Calm     74% 0 in 0 W/m2
02:27 70 °F 61.3 °F 30 in Calm     74% 0 in 0 W/m2
02:32 69.8 °F 61.5 °F 30 in Calm     75% 0 in 0 W/m2
02:37 69.6 °F 61.3 °F 30 in Calm     75% 0 in 0 W/m2
02:42 69.4 °F 61.2 °F 30 in Calm     75% 0 in 0 W/m2
02:47 69.4 °F 61.2 °F 30 in Calm     75% 0 in 0 W/m2
02:52 69.3 °F 61.3 °F 30 in Calm     76% 0 in 0 W/m2
02:58 69.3 °F 61.3 °F 30 in Calm     76% 0 in 0 W/m2
03:03 69.1 °F 61.2 °F 30 in Calm     76% 0 in 0 W/m2
03:08 68.9 °F 61 °F 30 in Calm     76% 0 in 0 W/m2
03:13 68.7 °F 60.8 °F 30 in Calm     76% 0 in 0 W/m2
03:18 68.5 °F 60.6 °F 30 in Calm     76% 0 in 0 W/m2
03:23 68.5 °F 61 °F 30 in Calm     77% 0 in 0 W/m2
03:28 68.4 °F 60.8 °F 30 in Calm     77% 0 in 0 W/m2
03:33 68.4 °F 60.8 °F 30 in Calm     77% 0 in 0 W/m2
03:38 68.2 °F 60.6 °F 30 in Calm     77% 0 in 0 W/m2
03:43 68.2 °F 60.6 °F 30 in Calm     77% 0 in 0 W/m2
03:48 67.8 °F 60.6 °F 30 in Calm     78% 0 in 0 W/m2
03:53 67.8 °F 60.6 °F 30 in Calm     78% 0 in 0 W/m2
03:58 67.6 °F 60.6 °F 30 in Calm     78% 0 in 0 W/m2
04:03 67.6 °F 61 °F 30 in Calm     79% 0 in 0 W/m2
04:08 67.5 °F 60.8 °F 30 in Calm     79% 0 in 0 W/m2
04:13 67.5 °F 60.8 °F 30 in Calm     79% 0 in 0 W/m2
04:18 67.5 °F 60.8 °F 30 in Calm     79% 0 in 0 W/m2
04:23 67.3 °F 60.6 °F 30 in Calm     79% 0 in 0 W/m2
04:28 67.3 °F 60.6 °F 30 in Calm     79% 0 in 0 W/m2
04:33 66.9 °F 60.6 °F 30 in Calm     80% 0 in 0 W/m2
04:38 66.9 °F 60.6 °F 30 in Calm     80% 0 in 0 W/m2
04:43 66.9 °F 60.6 °F 30 in Calm     80% 0 in 0 W/m2
04:48 66.7 °F 60.4 °F 30 in Calm     80% 0 in 0 W/m2
04:53 66.7 °F 60.8 °F 30 in Calm     81% 0 in 0 W/m2
04:58 66.7 °F 60.8 °F 30 in Calm     81% 0 in 0 W/m2
05:03 66.6 °F 61 °F 30 in Calm     82% 0 in 0 W/m2
05:08 66.6 °F 61 °F 30 in Calm     82% 0 in 0 W/m2
05:13 66.4 °F 60.8 °F 30 in Calm     82% 0 in 0 W/m2
05:18 66.2 °F 60.6 °F 30 in Calm     82% 0 in 0 W/m2
05:23 66.2 °F 60.6 °F 30 in Calm     82% 0 in 0 W/m2
05:28 66.2 °F 60.6 °F 30 in Calm     82% 0 in 0 W/m2
05:34 66.4 °F 60.8 °F 30 in Calm     82% 0 in 0 W/m2
05:39 66.2 °F 60.6 °F 30 in Calm     82% 0 in 0 W/m2
05:44 66 °F 60.4 °F 30 in Calm     82% 0 in 0 W/m2
05:49 66 °F 60.6 °F 30 in Calm     83% 0 in 0 W/m2
05:54 66 °F 60.6 °F 30 in Calm     83% 0 in 0 W/m2
05:59 65.8 °F 60.6 °F 30 in Calm     83% 0 in 0 W/m2
06:04 65.8 °F 60.6 °F 30 in Calm     83% 0 in 0 W/m2
06:09 66 °F 60.6 °F 30 in Calm     83% 0 in 0 W/m2
06:14 66 °F 60.6 °F 30.1 in Calm     83% 0 in 0 W/m2
06:19 66 °F 60.6 °F 30.1 in Calm     83% 0 in 0 W/m2
06:24 66 °F 60.6 °F 30.1 in Calm   1 mph 83% 0 in 5 W/m2
06:29 66 °F 60.6 °F 30.1 in Calm     83% 0 in 7 W/m2
06:34 66 °F 60.6 °F 30.1 in Calm     83% 0 in 9 W/m2
06:39 66 °F 60.6 °F 30.1 in Calm     83% 0 in 11 W/m2
06:44 65.8 °F 60.6 °F 30.1 in Calm     83% 0 in 12 W/m2
06:49 65.8 °F 60.6 °F 30.1 in Calm     83% 0 in 14 W/m2
06:54 65.8 °F 60.6 °F 30.1 in Calm     83% 0 in 16 W/m2
06:59 65.8 °F 60.6 °F 30.1 in Calm     83% 0 in 19 W/m2
07:04 65.8 °F 60.6 °F 30.1 in Calm     83% 0 in 21 W/m2
07:09 66 °F 60.6 °F 30.1 in Calm     83% 0 in 23 W/m2
07:14 66 °F 60.6 °F 30.1 in Calm     83% 0 in 25 W/m2
07:19 66.2 °F 60.8 °F 30.1 in Calm     83% 0 in 26 W/m2
07:24 66.4 °F 61 °F 30.1 in Calm     83% 0 in 28 W/m2
07:29 66.7 °F 61.3 °F 30.1 in Calm     83% 0 in 30 W/m2
07:34 66.9 °F 61.2 °F 30.1 in Calm     82% 0 in 32 W/m2
07:39 67.3 °F 61.5 °F 30.1 in Calm     82% 0 in 33 W/m2
07:44 67.5 °F 61.3 °F 30.1 in Calm     81% 0 in 33 W/m2
07:49 67.6 °F 61.5 °F 30.1 in Calm     81% 0 in 35 W/m2
07:54 68 °F 61.9 °F 30.1 in Calm     81% 0 in 37 W/m2
07:59 68.4 °F 61.9 °F 30.1 in Calm     80% 0 in 39 W/m2
08:04 68.7 °F 62.6 °F 30.1 in Calm     81% 0 in 116 W/m2
08:09 69.3 °F 62.4 °F 30.1 in Calm     79% 0 in 77 W/m2
08:15 70 °F 62.4 °F 30.1 in Calm     77% 0 in 44 W/m2
08:20 70.9 °F 63 °F 30.1 in Calm     76% 0 in 46 W/m2
08:25 71.8 °F 62.2 °F 30.1 in Calm   1 mph 72% 0 in 47 W/m2
08:30 72.9 °F 63 °F 30.1 in SE 2 mph 2 mph 71% 0 in 47 W/m2
08:35 73.9 °F 62.8 °F 30.1 in Calm   1 mph 68% 0 in 47 W/m2
08:40 75 °F 63.3 °F 30.1 in East 2 mph 2 mph 67% 0 in 49 W/m2
08:45 75.7 °F 63.5 °F 30.1 in ENE 2 mph 2 mph 66% 0 in 49 W/m2
08:50 76.6 °F 63.5 °F 30.1 in Calm   2 mph 64% 0 in 51 W/m2
08:55 77.2 °F 63.1 °F 30.1 in Calm   1 mph 62% 0 in 54 W/m2
09:00 77.5 °F 63.5 °F 30.1 in Calm   2 mph 62% 0 in 132 W/m2
09:05 78.1 °F 63.5 °F 30.1 in Calm   1 mph 61% 0 in 309 W/m2
09:10 78.1 °F 63.1 °F 30.1 in East 0.9 mph 2 mph 60% 0 in 339 W/m2
09:15 78.3 °F 63.3 °F 30.1 in ENE 0.9 mph 4 mph 60% 0 in 355 W/m2
09:20 78.3 °F 63.3 °F 30.1 in Calm   1 mph 60% 0 in 369 W/m2
09:25 78.4 °F 63.3 °F 30.1 in NNE 0.9 mph 3 mph 60% 0 in 387 W/m2
09:30 78.4 °F 63.3 °F 30.1 in Calm   2 mph 60% 0 in 399 W/m2
09:35 78.6 °F 63.5 °F 30.1 in NE 2 mph 3 mph 60% 0 in 411 W/m2
09:40 78.3 °F 63.3 °F 30.1 in Calm   1 mph 60% 0 in 424 W/m2
09:45 78.4 °F 63.3 °F 30.1 in ENE 0.9 mph 3 mph 60% 0 in 404 W/m2
09:50 79.2 °F 64 °F 30.1 in ESE 2 mph 3 mph 60% 0 in 62 W/m2
09:55 79.5 °F 63.9 °F 30.1 in East 2 mph 3 mph 59% 0 in 417 W/m2
10:00 80.1 °F 64.9 °F 30.1 in East 0.9 mph 3 mph 60% 0 in 473 W/m2
10:05 80.8 °F 64.6 °F 30.1 in NE 2 mph 3 mph 58% 0 in 492 W/m2
10:10 80.8 °F 64 °F 30.1 in NE 2.9 mph 4 mph 57% 0 in 503 W/m2
10:15 81 °F 64.8 °F 30.1 in NE 2 mph 3 mph 58% 0 in 517 W/m2
10:20 81 °F 64.2 °F 30.1 in NE 0.9 mph 3 mph 57% 0 in 527 W/m2
10:25 81.5 °F 64.8 °F 30.1 in NE 0.9 mph 4 mph 57% 0 in 538 W/m2
10:30 82.2 °F 64.9 °F 30.1 in East 0.9 mph 3 mph 56% 0 in 554 W/m2
10:35 82.8 °F 64.9 °F 30.1 in ESE 0.9 mph 4 mph 55% 0 in 564 W/m2
10:41 82.9 °F 64.6 °F 30.1 in ENE 0.9 mph 4 mph 54% 0 in 577 W/m2
10:46 83.1 °F 65.3 °F 30.1 in Calm   3 mph 55% 0 in 587 W/m2
10:51 83.5 °F 65.7 °F 30.1 in East 2 mph 3 mph 55% 0 in 598 W/m2
10:56 83.8 °F 65.5 °F 30.1 in North 0.9 mph 3 mph 54% 0 in 610 W/m2
11:01 84 °F 65.1 °F 30.1 in Calm   3 mph 53% 0 in 619 W/m2
11:06 84.2 °F 64.6 °F 30.1 in ENE 0.9 mph 3 mph 52% 0 in 631 W/m2
11:11 84.6 °F 64.9 °F 30.1 in ENE 2 mph 3 mph 52% 0 in 643 W/m2
11:16 85.1 °F 64.9 °F 30.1 in ENE 2.9 mph 4 mph 51% 0 in 654 W/m2
11:21 85.3 °F 65.1 °F 30.1 in NNW 0.9 mph 2 mph 51% 0 in 663 W/m2
11:26 85.3 °F 65.1 °F 30.1 in South 4 mph 4 mph 51% 0 in 673 W/m2
11:31 85.6 °F 66 °F 30.1 in ESE 2 mph 2 mph 52% 0 in 680 W/m2
11:36 86.2 °F 65.8 °F 30.1 in WSW 0.9 mph 2 mph 51% 0 in 691 W/m2
11:41 86.5 °F 65.7 °F 30.1 in Calm   2 mph 50% 0 in 698 W/m2
11:46 86.9 °F 65.5 °F 30.1 in Calm   2 mph 49% 0 in 705 W/m2
11:51 87.3 °F 65.1 °F 30.1 in NE 0.9 mph 5 mph 48% 0 in 714 W/m2
11:56 87.6 °F 66 °F 30.1 in Calm   1 mph 49% 0 in 722 W/m2
12:01 88.2 °F 64.8 °F 30.1 in NNE 2 mph 5 mph 46% 0 in 731 W/m2
12:06 88.5 °F 65.7 °F 30.1 in Calm   3 mph 47% 0 in 738 W/m2
12:11 89.1 °F 65.7 °F 30 in Calm   5 mph 46% 0 in 747 W/m2
12:16 89.4 °F 65.8 °F 30.1 in East 6.9 mph 8 mph 46% 0 in 754 W/m2
12:21 90 °F 65.8 °F 30.1 in NE 0.9 mph 3 mph 45% 0 in 758 W/m2
12:26 90.3 °F 66 °F 30 in Calm   1 mph 45% 0 in 763 W/m2
12:31 90.7 °F 65.8 °F 30 in East 2 mph 3 mph 44% 0 in 770 W/m2
12:36 91.2 °F 66.2 °F 30 in ENE 2 mph 4 mph 44% 0 in 777 W/m2
12:41 91.6 °F 65.8 °F 30 in East 4 mph 6 mph 43% 0 in 786 W/m2
12:46 91.8 °F 65.5 °F 30 in East 2 mph 2 mph 42% 0 in 784 W/m2
12:51 91.9 °F 65.5 °F 30 in NE 2 mph 6 mph 42% 0 in 791 W/m2
12:56 92.1 °F 65.7 °F 30 in North 2 mph 3 mph 42% 0 in 795 W/m2
13:01 92.5 °F 66 °F 30 in NNE 2 mph 4 mph 42% 0 in 798 W/m2
13:06 92.5 °F 65.3 °F 30 in East 2 mph 3 mph 41% 0 in 803 W/m2
13:11 92.3 °F 65.8 °F 30 in WSW 2 mph 6 mph 42% 0 in 807 W/m2
13:16 92.5 °F 65.3 °F 30 in East 4 mph 4 mph 41% 0 in 807 W/m2
13:21 92.8 °F 65.7 °F 30 in ENE 2.9 mph 3 mph 41% 0 in 809 W/m2
13:26 93.4 °F 66.2 °F 30 in SW 0.9 mph 2 mph 41% 0 in 816 W/m2
13:31 93.4 °F 65.5 °F 30 in NNE 0.9 mph 6 mph 40% 0 in 816 W/m2
13:36 93.6 °F 67.1 °F 30 in Calm   3 mph 42% 0 in 814 W/m2
13:41 93.7 °F 65.1 °F 30 in Calm   3 mph 39% 0 in 816 W/m2
13:47 93.9 °F 65.8 °F 30 in North 2.9 mph 3 mph 40% 0 in 809 W/m2
13:52 93.9 °F 65.1 °F 30 in WSW 0.9 mph 2 mph 39% 0 in 819 W/m2
13:57 94.1 °F 65.3 °F 30 in East 2.9 mph 6 mph 39% 0 in 838 W/m2
14:02 94.3 °F 64.8 °F 30 in NNE 0.9 mph 2 mph 38% 0 in 821 W/m2
14:07 94.3 °F 64.8 °F 30 in ESE 2 mph 2 mph 38% 0 in 810 W/m2
14:12 94.5 °F 65.7 °F 30 in ESE 2.9 mph 7 mph 39% 0 in 816 W/m2
14:17 94.5 °F 64.9 °F 30 in ESE 2 mph 4 mph 38% 0 in 812 W/m2
14:22 94.5 °F 64.2 °F 30 in West 2 mph 3 mph 37% 0 in 807 W/m2
14:27 94.3 °F 63.1 °F 30 in SSW 2 mph 3 mph 36% 0 in 842 W/m2
14:32 94.3 °F 63.1 °F 30 in Calm   2 mph 36% 0 in 824 W/m2
14:37 94.5 °F 63.3 °F 30 in ESE 2 mph 3 mph 36% 0 in 823 W/m2
14:42 95 °F 63.1 °F 30 in ESE 0.9 mph 7 mph 35% 0 in 812 W/m2
14:47 95.5 °F 63.5 °F 30 in ESE 2.9 mph 4 mph 35% 0 in 802 W/m2
14:52 95.5 °F 63.5 °F 30 in North 2.9 mph 6 mph 35% 0 in 800 W/m2
14:57 95.4 °F 63.3 °F 30 in NE 0.9 mph 6 mph 35% 0 in 798 W/m2
15:03 95.4 °F 62.6 °F 30 in East 0.9 mph 7 mph 34% 0 in 812 W/m2
15:08 95.4 °F 61.7 °F 30 in NNW 0.9 mph 3 mph 33% 0 in 784 W/m2
15:13 95.5 °F 61.9 °F 30 in NE 4.9 mph 5 mph 33% 0 in 775 W/m2
15:18 95.7 °F 62.1 °F 30 in Calm   3 mph 33% 0 in 768 W/m2
15:23 96.3 °F 61.5 °F 30 in East 0.9 mph 3 mph 32% 0 in 770 W/m2
15:28 96.6 °F 64.4 °F 30 in West 2.9 mph 4 mph 35% 0 in 768 W/m2
15:33 96.4 °F 61.7 °F 30 in Calm   2 mph 32% 0 in 766 W/m2
15:38 96.3 °F 62.4 °F 30 in SE 0.9 mph 3 mph 33% 0 in 708 W/m2
15:43 96.4 °F 61.7 °F 30 in SE 2.9 mph 6 mph 32% 0 in 745 W/m2
15:48 96.4 °F 61.7 °F 30 in NE 0.9 mph 5 mph 32% 0 in 737 W/m2
15:53 96.4 °F 61.7 °F 30 in Calm   2 mph 32% 0 in 731 W/m2
15:58 96.6 °F 62.8 °F 30 in SW 0.9 mph 3 mph 33% 0 in 719 W/m2
16:03 97.2 °F 62.4 °F 30 in ENE 2 mph 3 mph 32% 0 in 717 W/m2
16:08 97.3 °F 62.6 °F 30 in East 0.9 mph 2 mph 32% 0 in 707 W/m2
16:13 97.2 °F 61.5 °F 30 in West 4 mph 6 mph 31% 0 in 703 W/m2
16:18 96.3 °F 61.5 °F 30 in WNW 2 mph 3 mph 32% 0 in 689 W/m2
16:23 96.3 °F 61.5 °F 30 in ESE 2 mph 2 mph 32% 0 in 684 W/m2
16:28 97 °F 62.2 °F 30 in Calm   3 mph 32% 0 in 671 W/m2
16:33 97.3 °F 63.5 °F 30 in East 2.9 mph 3 mph 33% 0 in 666 W/m2
16:38 97.5 °F 61.9 °F 30 in ENE 4 mph 4 mph 31% 0 in 153 W/m2
16:44 97.3 °F 62.6 °F 30 in NNW 0.9 mph 2 mph 32% 0 in 647 W/m2
16:49 97.3 °F 62.6 °F 30 in ENE 4 mph 5 mph 32% 0 in 652 W/m2
16:54 97.5 °F 61.9 °F 30 in WNW 2.9 mph 4 mph 31% 0 in 631 W/m2
16:59 97.7 °F 62.8 °F 30 in WSW 0.9 mph 2 mph 32% 0 in 626 W/m2
17:04 98.1 °F 62.2 °F 30 in Calm   2 mph 31% 0 in 613 W/m2
17:09 97.9 °F 62.1 °F 30 in NE 0.9 mph 2 mph 31% 0 in 585 W/m2
17:14 98.1 °F 62.2 °F 30 in East 0.9 mph 3 mph 31% 0 in 568 W/m2
17:19 97.9 °F 60.3 °F 30 in Calm   2 mph 29% 0 in 564 W/m2
17:24 98.1 °F 61.3 °F 30 in ESE 0.9 mph 3 mph 30% 0 in 554 W/m2
17:29 97.9 °F 61.2 °F 30 in NW 0.9 mph 2 mph 30% 0 in 529 W/m2
17:35 97.9 °F 62.1 °F 30 in NNW 2 mph 4 mph 31% 0 in 529 W/m2
17:40 97.9 °F 63 °F 30 in WNW 4 mph 5 mph 32% 0 in 512 W/m2
17:45 97.2 °F 61.5 °F 30 in WSW 0.9 mph 4 mph 31% 0 in 178 W/m2
17:50 97 °F 60.4 °F 30 in West 2.9 mph 4 mph 30% 0 in 503 W/m2
17:55 96.8 °F 61.2 °F 30 in Calm   1 mph 31% 0 in 489 W/m2
18:00 97.2 °F 61.5 °F 30 in WNW 2.9 mph 3 mph 31% 0 in 466 W/m2
18:05 97.3 °F 61.7 °F 30 in Calm   1 mph 31% 0 in 454 W/m2
18:10 97.7 °F 61.9 °F 30 in ENE 2 mph 2 mph 31% 0 in 459 W/m2
18:15 98.1 °F 62.2 °F 30 in NNE 0.9 mph 9 mph 31% 0 in 450 W/m2
18:20 97.9 °F 62.1 °F 30 in Calm   2 mph 31% 0 in 436 W/m2
18:25 98.1 °F 62.2 °F 30 in NE 2 mph 7 mph 31% 0 in 413 W/m2
18:30 98.1 °F 63.1 °F 30 in ENE 2 mph 4 mph 32% 0 in 392 W/m2
18:35 97.9 °F 63 °F 30 in NE 2.9 mph 9 mph 32% 0 in 378 W/m2
18:40 97.5 °F 61.9 °F 30 in ESE 0.9 mph 4 mph 31% 0 in 353 W/m2
18:45 97.5 °F 62.8 °F 30 in East 2 mph 4 mph 32% 0 in 322 W/m2
18:50 97.3 °F 63.5 °F 30 in Calm   3 mph 33% 0 in 297 W/m2
18:55 97.2 °F 62.4 °F 30 in East 2 mph 4 mph 32% 0 in 269 W/m2
19:00 97.2 °F 62.4 °F 30 in Calm   1 mph 32% 0 in 244 W/m2
19:05 97.2 °F 62.4 °F 30 in ENE 2 mph 4 mph 32% 0 in 223 W/m2
19:10 96.6 °F 61.9 °F 30 in East 0.9 mph 3 mph 32% 0 in 199 W/m2
19:15 96.4 °F 62.6 °F 30 in SSE 2 mph 3 mph 33% 0 in 183 W/m2
19:20 96.3 °F 64.2 °F 30 in Calm   1 mph 35% 0 in 163 W/m2
19:25 96.1 °F 64.8 °F 30 in Calm   3 mph 36% 0 in 148 W/m2
19:30 95.7 °F 65.3 °F 30 in Calm   1 mph 37% 0 in 135 W/m2
19:35 95 °F 64.6 °F 30 in Calm     37% 0 in 132 W/m2
19:40 94.5 °F 64.9 °F 30 in Calm     38% 0 in 132 W/m2
19:45 93.9 °F 65.1 °F 30 in Calm   1 mph 39% 0 in 128 W/m2
19:50 93.6 °F 64.2 °F 30 in ESE 0.9 mph 1 mph 38% 0 in 120 W/m2
19:55 92.8 °F 64.2 °F 30 in ESE 0.9 mph 2 mph 39% 0 in 104 W/m2
20:00 92.3 °F 63.7 °F 30 in Calm   1 mph 39% 0 in 90 W/m2
20:05 91.8 °F 64 °F 30 in ESE 0.9 mph 2 mph 40% 0 in 77 W/m2
20:10 91.2 °F 64.2 °F 30 in ESE 0.9 mph 2 mph 41% 0 in 58 W/m2
20:15 90.7 °F 63.7 °F 30 in Calm   1 mph 41% 0 in 46 W/m2
20:21 90.1 °F 63.9 °F 30 in ESE 0.9 mph 1 mph 42% 0 in 28 W/m2
20:26 89.4 °F 64 °F 30 in ESE 0.9 mph 2 mph 43% 0 in 25 W/m2
20:31 89.1 °F 64.2 °F 30 in ESE 0.9 mph 1 mph 44% 0 in 23 W/m2
20:36 88.5 °F 63.9 °F 30 in ESE 0.9 mph 1 mph 44% 0 in 19 W/m2
20:41 88 °F 63.3 °F 30 in ESE 0.9 mph 1 mph 44% 0 in 14 W/m2
20:46 87.4 °F 63.5 °F 30 in ESE 0.9 mph 2 mph 45% 0 in 12 W/m2
20:51 86.9 °F 63 °F 30 in Calm   1 mph 45% 0 in 9 W/m2
20:56 86.4 °F 63.1 °F 30 in ESE 0.9 mph 2 mph 46% 0 in 5 W/m2
21:01 85.8 °F 62.6 °F 30 in Calm     46% 0 in 0 W/m2
21:06 85.5 °F 63 °F 30 in Calm   1 mph 47% 0 in 0 W/m2
21:11 84.9 °F 62.4 °F 30 in Calm   1 mph 47% 0 in 0 W/m2
21:16 84.4 °F 62.6 °F 30 in Calm   1 mph 48% 0 in 0 W/m2
21:21 83.8 °F 62.6 °F 30 in Calm     49% 0 in 0 W/m2
21:26 83.5 °F 63 °F 30 in Calm     50% 0 in 0 W/m2
21:31 82.9 °F 62.4 °F 30 in Calm     50% 0 in 0 W/m2
21:36 82.6 °F 62.1 °F 30 in Calm     50% 0 in 0 W/m2
21:41 82 °F 61.5 °F 30 in Calm     50% 0 in 0 W/m2
21:46 81.7 °F 61.2 °F 30 in Calm     50% 0 in 0 W/m2
21:51 81.3 °F 61.5 °F 30 in Calm     51% 0 in 0 W/m2
21:56 81 °F 61.7 °F 30 in Calm     52% 0 in 0 W/m2
22:01 80.8 °F 61.5 °F 30 in Calm     52% 0 in 0 W/m2
22:06 80.4 °F 61.2 °F 30 in Calm     52% 0 in 0 W/m2
22:11 80.2 °F 61 °F 30 in Calm   2 mph 52% 0 in 0 W/m2
22:16 79.9 °F 61.2 °F 30 in Calm     53% 0 in 0 W/m2
22:21 79.9 °F 61.2 °F 30 in SE 0.9 mph 2 mph 53% 0 in 0 W/m2
22:26 79.5 °F 60.8 °F 30 in Calm   1 mph 53% 0 in 0 W/m2
22:31 79.3 °F 61.2 °F 30 in Calm   1 mph 54% 0 in 0 W/m2
22:36 79.3 °F 61.2 °F 30 in Calm     54% 0 in 0 W/m2
22:41 79.2 °F 61.5 °F 30 in Calm   1 mph 55% 0 in 0 W/m2
22:46 78.8 °F 61.3 °F 30 in Calm   1 mph 55% 0 in 0 W/m2
22:51 78.4 °F 61 °F 30 in Calm     55% 0 in 0 W/m2
22:56 78.3 °F 60.8 °F 30 in Calm   1 mph 55% 0 in 0 W/m2
23:01 78.1 °F 61.2 °F 30 in Calm     56% 0 in 0 W/m2
23:06 77.7 °F 61.3 °F 30 in Calm   1 mph 57% 0 in 0 W/m2
23:11 77.4 °F 61 °F 30 in Calm     57% 0 in 0 W/m2
23:16 77.2 °F 61.3 °F 30 in Calm     58% 0 in 0 W/m2
23:21 76.8 °F 61.3 °F 30 in Calm     59% 0 in 0 W/m2
23:26 76.6 °F 61.2 °F 30 in Calm     59% 0 in 0 W/m2
23:32 76.3 °F 61 °F 30 in Calm     59% 0 in 0 W/m2
23:37 76.1 °F 61.2 °F 30 in Calm     60% 0 in 0 W/m2
23:42 75.7 °F 60.8 °F 30 in Calm     60% 0 in 0 W/m2
23:47 75.7 °F 61.3 °F 30 in Calm     61% 0 in 0 W/m2
23:52 75.4 °F 61 °F 30 in Calm     61% 0 in 0 W/m2
23:57 75.2 °F 60.8 °F 30 in Calm     61% 0 in 0 W/m2
Juneau County Weather
Compliments of Weather Underground - 4 mb